Overview Statistics Trail Chart Weather Telemetry Raw packets
 

This is the latest recevied weather packets stored in our database for station/object HI3LT-13. If no packets are shown the sender has not sent any weather packets the latest 10 day(s).

<< 34 35 36 37 38 39 40 >>
Time Temp. Humidity Pressure Rain* Wind** Luminosity Snow
1788098662 31.11° C 83% 1016 hPa 0 mm - - -
1788098062 31.67° C 83% 1016 hPa 0 mm - - -
1788097461 32.22° C 83% 1016 hPa 0 mm - - -
1788096860 26.67° C 83% 1016 hPa 0 mm - - -
1788096259 27.78° C 86% 1016 hPa 0 mm - - -
1788095658 27.78° C 90% 1016 hPa 0 mm - - -
1788095057 27.78° C 91% 1016 hPa 0 mm - - -
1788094456 26.67° C 89% 1016 hPa 0 mm - - -
1788093856 30° C 89% 1016 hPa 0 mm - - -
1788093255 25.56° C 88% 1016 hPa 0 mm - - -
1788092654 25.56° C 89% 1016 hPa 0 mm - - -
1788092053 25.56° C 90% 1016 hPa 0 mm - - -
1788091452 26.11° C 93% 1016 hPa 0 mm - - -
1788090851 25.56° C 94% 1016 hPa 0 mm - - -
1788090251 26.67° C 93% 1016 hPa 0 mm - - -
1788089650 25° C 93% 1016 hPa 0 mm - - -
1788089049 25° C 93% 1016 hPa 0 mm - - -
1788088448 24.44° C 93% 1016 hPa 0 mm - - -
1788087847 23.89° C 92% 1016 hPa 0 mm - - -
1788087247 24.44° C 91% 1016 hPa 0 mm - - -
1788086646 24.44° C 91% 1016 hPa 0 mm - - -
1788086045 24.44° C 91% 1016 hPa 0 mm - - -
1788085444 26.11° C 91% 1016 hPa 0 mm - - -
1788084843 26.11° C 91% 1016 hPa 0 mm - - -
1788084243 26.11° C 91% 1016 hPa 0 mm - - -

* Rain latest hour (hover to see other rain measurements)
** Current wind speed in m/s (hover to see current wind gust speed)